This is the latest recevied weather packets stored in our database for station/object ALTO-WX. If no packets are shown the sender has not sent any weather packets the latest 10 day(s).
| Time | Temp. | Humidity | Pressure | Rain* | Wind** | Luminosity | Snow |
|---|---|---|---|---|---|---|---|
| 1778157939 | 5.56° C | 69% | 982.4 hPa | 0 mm | - | - | - |
| 1778157054 | 5° C | 69% | 982.5 hPa | 0 mm | - | - | - |
| 1778156133 | 5° C | 69% | 982.5 hPa | 0 mm | - | - | - |
| 1778155264 | 4.44° C | 71% | 982.3 hPa | 0 mm | - | - | - |
| 1778154339 | 3.89° C | 75% | 981.9 hPa | 0 mm | - | - | - |
| 1778153456 | 3.33° C | 75% | 981.9 hPa | 0 mm | - | - | - |
| 1778152538 | 2.78° C | 75% | 981.9 hPa | 0 mm | - | - | - |
| 1778151666 | 2.78° C | 75% | 981.9 hPa | 0 mm | - | - | - |
| 1778150732 | 2.78° C | 70% | 981.2 hPa | 0 mm | - | - | - |
| 1778149857 | 2.78° C | 70% | 982.3 hPa | 0 mm | - | - | - |
| 1778148938 | 2.78° C | 70% | 982.3 hPa | 0 mm | - | - | - |
| 1778148070 | 3.33° C | 69% | 982.7 hPa | 0 mm | - | - | - |
| 1778147138 | 3.33° C | 70% | 983 hPa | 0 mm | - | - | - |
| 1778146255 | 3.33° C | 70% | 983 hPa | 0 mm | - | - | - |
| 1778145335 | 3.33° C | 73% | 982.3 hPa | 0 mm | - | - | - |
| 1778144463 | 3.89° C | 73% | 982.3 hPa | 0 mm | - | - | - |
| 1778143537 | 3.89° C | 71% | 982.7 hPa | 0 mm | - | - | - |
| 1778142658 | 3.89° C | 71% | 982.6 hPa | 0 mm | - | - | - |
| 1778141736 | 3.89° C | 71% | 982.6 hPa | 0 mm | - | - | - |
| 1778140862 | 3.89° C | 70% | 982.3 hPa | 0 mm | - | - | - |
| 1778139937 | 4.44° C | 66% | 982.5 hPa | 0 mm | - | - | - |
| 1778139056 | 4.44° C | 66% | 982.5 hPa | 0 mm | - | - | - |
| 1778138136 | 4.44° C | 66% | 982.5 hPa | 0 mm | - | - | - |
| 1778137266 | 4.44° C | 66% | 982.5 hPa | 0 mm | - | - | - |
| 1778136337 | 4.44° C | 65% | 983.5 hPa | 0 mm | - | - | - |
* Rain latest hour (hover to see other rain measurements)
** Current wind speed in m/s (hover to see current wind gust speed)